Weather History for Athens, OH

Change the Weather History Date:

Saturday, April 20, 2013

  Actual Average (KPKB) Record (KPKB)
Temperature  
Mean Temperature 44 °F 56 °F  
Max Temperature 51 °F 68 °F 91 °F (1976)
Min Temperature 35 °F 43 °F 25 °F (1926)
Degree Days  
Heating Degree Days 22 10  
Month to date heating degree days 258  
Since 1 July heating degree days 4719  
Moisture  
Dew Point 27 °F    
Average Humidity 54    
Maximum Humidity 80    
Minimum Humidity 34    
Precipitation  
Precipitation 0.00 in 0.11 in 0.53 in (2001)
Month to date precipitation 2.15  
Year to date precipitation 11.53  
Sea Level Pressure  
Sea Level Pressure 30.17 in    
Wind  
Wind Speed 10 mph (West)    
Max Wind Speed 20 mph    
Max Gust Speed 26 mph    
Visibility 10 miles    
Events      
T = Trace of Precipitation, MM = Missing Value Source: NWS Daily Summary

Daily Weather History Graph

Daily Weather History Graph

Search for Another Location

Airport:

Trip Planner

Search our weather history database for the weather conditions in past years. The results will help you decide how hot, cold, wet, or windy it might be!

Date:

Astronomy

Apr. 20, 2013 Rise Set
Actual Time 6:44 AM EDT 8:11 PM EDT
Civil Twilight 6:16 AM EDT 8:39 PM EDT
Nautical Twilight 5:42 AM EDT 9:13 PM EDT
Astronomical Twilight 5:07 AM EDT 9:49 PM EDT
Moon 2:56 PM EDT (4/20) 3:31 AM EDT (4/20)
Length of Visible Light 14h 23m
Length of Day
13h 26m
Waxing Gibbous, 71% of the Moon is Illuminated
Apr 20
Waxing Gibbous
Apr 25
Full
May 2
Last Quarter
May 9
New
May 18
First Quarter

Hourly Weather History & Observations

Time (EDT) Temp. Windchill Dew Point Humidity Pressure Visibility Wind Dir Wind Speed Gust Speed Precip Events Conditions
12:15 AM 40.1 °F 32.4 °F 27.3 °F 60% 29.99 in 10.0 mi WSW 13.8 mph 18.4 mph N/A   Scattered Clouds
12:35 AM 39.6 °F 34.0 °F 27.3 °F 62% 30.00 in 10.0 mi WSW 8.1 mph 16.1 mph N/A   Clear
12:55 AM 39.6 °F 31.3 °F 26.4 °F 59% 30.01 in 10.0 mi WSW 15.0 mph 26.5 mph N/A   Clear
1:15 AM 39.6 °F 32.5 °F 26.4 °F 59% 30.01 in 10.0 mi WSW 11.5 mph 16.1 mph N/A   Clear
1:35 AM 39.2 °F 31.6 °F 26.6 °F 61% 30.02 in 10.0 mi WSW 12.7 mph 19.6 mph N/A   Clear
1:55 AM 39.2 °F 31.6 °F 26.8 °F 61% 30.02 in 10.0 mi WSW 12.7 mph 18.4 mph N/A   Clear
2:15 AM 39.0 °F 33.4 °F 27.0 °F 62% 30.02 in 10.0 mi SW 8.1 mph - N/A   Clear
2:35 AM 38.5 °F 35.0 °F 27.0 °F 63% 30.01 in 10.0 mi SW 4.6 mph - N/A   Clear
2:55 AM 38.3 °F 33.9 °F 27.3 °F 65% 30.01 in 10.0 mi SW 5.8 mph - N/A   Clear
3:15 AM 37.9 °F 32.1 °F 27.5 °F 66% 30.01 in 10.0 mi SW 8.1 mph - N/A   Clear
3:35 AM 38.3 °F 33.9 °F 28.0 °F 67% 30.02 in 10.0 mi SSW 5.8 mph - N/A   Scattered Clouds
3:55 AM 38.3 °F 33.9 °F 28.2 °F 67% 30.02 in 10.0 mi SW 5.8 mph - N/A   Scattered Clouds
4:15 AM 37.9 °F 34.4 °F 28.4 °F 69% 30.03 in 10.0 mi SW 4.6 mph - N/A   Mostly Cloudy
4:35 AM 38.1 °F 32.9 °F 29.3 °F 71% 30.03 in 10.0 mi SW 6.9 mph - N/A   Mostly Cloudy
4:55 AM 37.9 °F 33.5 °F 29.7 °F 72% 30.04 in 10.0 mi SW 5.8 mph - N/A   Scattered Clouds
5:15 AM 37.8 °F 34.2 °F 29.8 °F 73% 30.04 in 10.0 mi SW 4.6 mph - N/A   Mostly Cloudy
5:35 AM 37.2 °F 32.6 °F 30.2 °F 76% 30.05 in 10.0 mi SW 5.8 mph - N/A   Mostly Cloudy
5:55 AM 37.6 °F 32.3 °F 30.2 °F 75% 30.06 in 10.0 mi SW 6.9 mph - N/A   Scattered Clouds
6:15 AM 37.4 °F 32.1 °F 30.4 °F 76% 30.06 in 10.0 mi SW 6.9 mph - N/A   Clear
6:35 AM 36.7 °F 31.2 °F 30.6 °F 78% 30.07 in 10.0 mi SW 6.9 mph - N/A   Scattered Clouds
6:55 AM 36.7 °F 31.2 °F 30.7 °F 79% 30.08 in 10.0 mi SW 6.9 mph - N/A   Scattered Clouds
7:15 AM 36.9 °F 31.4 °F 31.1 °F 80% 30.09 in 10.0 mi WSW 6.9 mph - N/A   Clear
7:35 AM 37.6 °F 32.3 °F 31.5 °F 79% 30.10 in 10.0 mi WSW 6.9 mph - N/A   Clear
7:55 AM 38.5 °F 33.4 °F 31.8 °F 77% 30.11 in 10.0 mi WSW 6.9 mph - N/A   Scattered Clouds
8:15 AM 39.7 °F 33.2 °F 32.0 °F 74% 30.11 in 10.0 mi WSW 10.4 mph - N/A   Scattered Clouds
8:35 AM 41.0 °F 34.7 °F 31.8 °F 70% 30.12 in 10.0 mi West 10.4 mph - N/A   Scattered Clouds
8:55 AM 40.8 °F 32.9 °F 31.6 °F 70% 30.13 in 10.0 mi West 15.0 mph - N/A   Mostly Cloudy
9:15 AM 41.9 °F 35.4 °F 31.3 °F 66% 30.14 in 10.0 mi West 11.5 mph - N/A   Overcast
9:35 AM 42.6 °F 34.0 °F 30.0 °F 61% 30.14 in 10.0 mi West 19.6 mph 26.5 mph N/A   Mostly Cloudy
9:55 AM 43.0 °F 35.7 °F 29.3 °F 59% 30.15 in 10.0 mi West 15.0 mph 21.9 mph N/A   Mostly Cloudy
10:15 AM 43.7 °F 36.9 °F 29.1 °F 57% 30.16 in 10.0 mi West 13.8 mph 23.0 mph N/A   Overcast
10:35 AM 44.1 °F 36.2 °F 27.5 °F 52% 30.17 in 10.0 mi West 18.4 mph 26.5 mph N/A   Mostly Cloudy
10:55 AM 45.3 °F 40.6 °F 29.1 °F 53% 30.18 in 10.0 mi West 9.2 mph 21.9 mph N/A   Mostly Cloudy
11:15 AM 45.7 °F 41.0 °F 28.0 °F 50% 30.18 in 10.0 mi West 9.2 mph - N/A   Scattered Clouds
11:35 AM 47.5 °F - 27.3 °F 46% 30.19 in 10.0 mi West 13.8 mph 21.9 mph N/A   Mostly Cloudy
11:55 AM 47.3 °F - 26.2 °F 44% 30.19 in 10.0 mi WNW 9.2 mph 24.2 mph N/A   Mostly Cloudy
12:15 PM 47.5 °F - 25.7 °F 43% 30.19 in 10.0 mi WNW 15.0 mph 23.0 mph N/A   Mostly Cloudy
12:35 PM 48.6 °F - 27.7 °F 44% 30.19 in 10.0 mi West 16.1 mph - N/A   Scattered Clouds
12:55 PM 48.6 °F - 25.9 °F 41% 30.19 in 10.0 mi West 15.0 mph 23.0 mph N/A   Scattered Clouds
1:15 PM 49.3 °F - 25.2 °F 39% 30.19 in 10.0 mi WSW 10.4 mph 20.7 mph N/A   Scattered Clouds
1:35 PM 50.7 °F - 25.7 °F 38% 30.19 in 10.0 mi NW 16.1 mph 25.3 mph N/A   Scattered Clouds
1:55 PM 50.0 °F - 23.5 °F 36% 30.19 in 10.0 mi WNW 15.0 mph 23.0 mph N/A   Scattered Clouds
2:15 PM 50.7 °F - 24.1 °F 35% 30.19 in 10.0 mi NW 10.4 mph 20.7 mph N/A   Clear
2:35 PM 51.3 °F - 24.4 °F 35% 30.20 in 10.0 mi WNW 10.4 mph 18.4 mph N/A   Scattered Clouds
2:55 PM 50.7 °F - 23.4 °F 34% 30.20 in 10.0 mi WSW 8.1 mph 20.7 mph N/A   Scattered Clouds
3:15 PM 51.1 °F - 23.7 °F 34% 30.21 in 10.0 mi WNW 13.8 mph 20.7 mph N/A   Scattered Clouds
3:35 PM 50.2 °F - 22.8 °F 34% 30.22 in 10.0 mi WNW 9.2 mph - N/A   Scattered Clouds
3:55 PM 50.2 °F - 23.2 °F 35% 30.22 in 10.0 mi NW 11.5 mph 19.6 mph N/A   Scattered Clouds
4:15 PM 51.1 °F - 24.3 °F 35% 30.22 in 10.0 mi NW 11.5 mph 20.7 mph N/A   Scattered Clouds
4:35 PM 49.8 °F - 24.3 °F 37% 30.23 in 10.0 mi NW 12.7 mph 19.6 mph N/A   Scattered Clouds
4:55 PM 50.4 °F - 23.7 °F 35% 30.23 in 10.0 mi NW 13.8 mph 23.0 mph N/A   Scattered Clouds
5:15 PM 50.7 °F - 24.1 °F 35% 30.24 in 10.0 mi NW 11.5 mph 16.1 mph N/A   Scattered Clouds
5:35 PM 50.0 °F - 24.1 °F 36% 30.25 in 10.0 mi NW 10.4 mph 18.4 mph N/A   Scattered Clouds
5:55 PM 50.5 °F - 24.1 °F 36% 30.26 in 10.0 mi WNW 9.2 mph 16.1 mph N/A   Clear
6:15 PM 49.5 °F - 23.4 °F 36% 30.26 in 10.0 mi NW 11.5 mph 17.3 mph N/A   Scattered Clouds
6:35 PM 48.6 °F - 22.6 °F 36% 30.27 in 10.0 mi NW 9.2 mph 19.6 mph N/A   Scattered Clouds
6:55 PM 48.4 °F - 23.0 °F 37% 30.27 in 10.0 mi NW 6.9 mph 16.1 mph N/A   Clear
7:15 PM 47.8 °F - 23.2 °F 38% 30.28 in 10.0 mi NNW 9.2 mph - N/A   Clear
7:35 PM 46.8 °F - 23.5 °F 40% 30.29 in 10.0 mi NNW 8.1 mph - N/A   Clear
7:55 PM 45.7 °F 42.7 °F 23.0 °F 41% 30.30 in 10.0 mi NNW 5.8 mph - N/A   Clear
8:15 PM 44.4 °F 40.5 °F 22.8 °F 43% 30.31 in 10.0 mi North 6.9 mph - N/A   Clear
8:35 PM 43.2 °F 39.7 °F 23.5 °F 46% 30.31 in 10.0 mi North 5.8 mph - N/A   Clear
8:55 PM 42.3 °F - 23.7 °F 48% 30.33 in 10.0 mi Calm Calm - N/A   Clear
9:15 PM 41.4 °F 39.4 °F 24.3 °F 51% 30.34 in 10.0 mi NNW 3.5 mph - N/A   Clear
9:35 PM 41.4 °F - 23.7 °F 50% 30.35 in 10.0 mi Calm Calm - N/A   Clear
9:55 PM 41.0 °F - 23.9 °F 51% 30.36 in 10.0 mi Calm Calm - N/A   Clear
10:15 PM 40.3 °F - 23.9 °F 52% 30.36 in 10.0 mi Calm Calm - N/A   Clear
10:35 PM 38.5 °F - 25.0 °F 58% 30.37 in 10.0 mi Calm Calm - N/A   Clear
10:55 PM 38.1 °F 35.7 °F 24.8 °F 59% 30.38 in 10.0 mi North 3.5 mph - N/A   Clear
11:15 PM 37.9 °F - 24.6 °F 59% 30.39 in 10.0 mi Calm Calm - N/A   Clear
11:35 PM 36.9 °F - 25.2 °F 63% 30.39 in 10.0 mi Calm Calm - N/A   Clear
11:55 PM 35.6 °F - 25.5 °F 67% 30.39 in 10.0 mi Calm Calm - N/A   Clear